Powrót do katalogu

FENGYUN 1C DEB

AktywnyPO
NORAD 38166·DEBRIS·🇨🇳 China

Wystrzelony May 10, 1999 z Taiyuan Satellite Launch Center

Loading…

Następne Przeloty (najbliższe 24 godziny)

TLE

ŚwieżeSource: Space-Track

Epoka: Sep 14, 2026, 14:04 UTC

1 38166U 99025ERP 26257.58664196  .00004172  00000-0  14711-2 0  9996
2 38166  99.0828  18.8501 0049241 320.0977  39.6591 14.34663718677234

Śledź FENGYUN 1C DEB w czasie rzeczywistym z AllMySat

Download on the App Store